Theta_e
360 360 360 359 359 359 360 359 357 358 359 356 353 350 345 346 342 339 340 343 340 345 345 341 357 357 357 361 357 360 361 355 356 359 361 359 360 353 346 347 347 347 346 345 346 348 349 349 349 351 351 352 353 353 350 350 350 351 351 350 350 350 350 348 346 346 346 345 345 343 342 341 341 340
364 362 361 360 359 362 361 360 359 361 363 358 356 353 351 350 344 343 339 341 346 344 346 344 347 361 361 359 358 359 361 356 358 357 359 358 359 350 345 346 345 345 344 343 342 343 345 345 346 347 349 350 350 349 349 349 348 349 349 349 349 349 350 347 346 346 345 344 345 344 343 342 340 339
364 363 361 363 361 363 362 362 360 361 363 361 358 356 356 354 353 350 346 341 347 349 346 346 348 352 362 355 352 354 358 358 358 357 359 361 355 350 355 345 344 343 343 342 341 341 341 341 342 343 344 344 345 345 345 346 347 348 348 348 348 348 349 347 345 346 345 344 344 344 343 341 339 338
364 366 365 365 364 364 364 364 363 362 364 364 360 361 359 358 357 354 349 346 345 350 346 347 351 351 354 358 358 359 357 355 356 360 357 360 355 359 358 350 345 343 341 341 340 339 338 336 338 340 342 342 343 344 344 344 345 345 345 345 345 345 345 344 345 345 344 344 343 343 342 340 339 338
364 366 366 366 366 367 365 364 363 361 363 365 364 363 361 359 360 357 353 348 348 353 356 353 353 355 356 352 356 356 357 358 360 358 361 361 359 359 359 358 348 343 341 340 339 338 337 336 336 338 339 341 342 343 343 342 341 340 341 342 340 340 342 343 344 344 343 344 343 342 342 341 339 338
364 366 367 366 366 367 366 364 363 362 359 360 361 362 361 360 360 362 356 354 351 350 356 354 358 355 358 356 361 357 356 357 359 357 361 363 362 360 359 358 357 344 342 340 339 338 336 335 335 336 337 338 339 340 340 340 337 338 339 338 337 337 338 340 342 343 342 342 343 343 342 340 339 338
366 365 366 365 365 363 364 366 364 361 361 361 360 361 363 362 361 363 363 358 354 354 355 359 356 356 357 356 358 361 360 362 362 360 358 355 356 359 360 360 356 346 342 340 339 337 337 336 335 334 334 336 336 337 336 335 335 335 334 333 334 335 336 336 338 340 341 340 342 343 342 339 339 337
364 365 366 365 363 363 363 366 365 363 363 362 363 362 363 364 363 364 364 364 360 357 352 357 357 357 357 358 361 361 362 360 360 359 360 359 358 357 357 357 357 352 343 340 338 338 337 335 334 333 333 333 332 332 332 332 331 330 331 331 331 331 332 332 332 336 336 337 336 340 340 338 339 336
365 365 365 365 365 366 364 365 365 365 366 366 364 363 364 364 365 365 364 364 364 361 357 357 361 362 362 362 363 364 359 359 360 361 360 360 360 359 358 357 356 348 343 341 339 338 337 336 335 334 333 332 331 330 330 330 329 329 328 326 327 329 329 329 329 331 333 333 332 334 337 337 336 333
367 366 366 366 365 365 365 365 365 368 368 368 367 366 365 365 366 365 365 364 362 360 359 360 359 363 361 361 362 364 362 359 358 358 359 360 360 360 359 358 356 357 356 356 355 344 340 337 334 335 334 332 330 330 329 330 329 327 325 322 324 327 326 326 327 328 328 329 328 329 333 334 333 333
364 366 367 367 367 367 367 366 365 367 368 368 368 367 367 367 365 362 362 362 360 358 357 357 358 358 361 360 357 361 362 359 358 356 354 355 358 359 357 357 360 360 358 352 345 347 347 345 345 335 330 330 331 330 329 328 327 326 324 323 321 321 323 324 324 324 325 327 327 327 326 327 330 332
362 363 365 363 365 367 369 368 368 368 366 369 368 367 368 367 365 361 360 361 359 357 357 354 354 355 356 357 358 359 359 355 356 358 356 353 355 357 360 360 357 358 358 357 356 348 346 344 342 336 334 333 331 329 330 331 332 330 326 324 326 325 322 322 322 323 323 324 324 325 326 325 325 328
365 363 361 361 362 366 369 369 368 368 368 368 367 370 370 368 365 363 361 360 358 358 355 353 354 352 353 354 355 353 354 353 354 359 360 357 359 359 358 359 359 357 354 356 355 355 357 355 356 356 357 356 343 340 334 339 337 332 328 325 326 326 324 321 321 322 322 322 322 322 324 324 323 323
363 364 363 362 368 367 369 365 357 351 351 352 359 364 368 367 366 363 360 358 357 356 353 352 352 350 351 352 355 353 354 358 360 357 359 356 357 356 355 357 358 359 356 354 354 357 359 356 356 356 355 355 360 357 354 350 344 337 330 329 327 326 325 323 321 320 321 321 321 321 320 322 322 321
363 363 364 365 366 370 362 365 350 347 343 343 342 342 346 356 365 363 360 358 358 356 354 353 354 353 353 355 358 356 355 356 356 356 359 358 357 353 350 347 355 360 358 356 353 354 359 360 356 357 356 356 357 357 356 343 337 333 332 330 329 327 327 326 323 321 320 320 321 320 319 320 321 320
364 363 361 362 364 366 369 369 370 355 342 337 338 337 337 339 340 344 360 361 359 359 355 355 355 356 355 357 359 357 355 358 358 360 360 359 355 354 350 350 349 357 358 352 351 351 358 359 356 356 357 357 358 357 347 339 333 331 330 330 328 327 326 326 326 324 322 322 323 323 322 321 321 320
366 366 364 364 364 365 372 366 367 370 370 341 332 335 336 337 335 334 334 337 358 361 359 358 356 357 357 358 360 361 361 365 360 361 358 358 357 356 353 352 353 356 361 355 351 349 356 358 355 355 358 359 360 358 342 336 335 331 330 329 328 328 327 326 325 325 325 323 321 320 320 321 321 320
367 367 368 366 366 367 368 369 367 368 368 369 366 358 357 360 353 335 330 330 330 341 357 360 358 361 365 362 365 368 368 362 359 359 357 358 357 357 355 358 356 357 359 354 351 348 352 357 355 355 358 359 360 361 349 337 333 330 329 328 327 326 326 326 325 324 324 323 322 320 318 318 317 318
367 368 369 369 367 369 369 369 369 369 370 370 369 367 364 365 366 367 360 354 354 353 354 358 360 363 365 367 366 367 367 366 365 363 362 360 358 357 358 356 355 355 358 357 352 344 351 357 353 354 356 357 358 359 345 338 333 330 328 327 327 326 325 326 325 324 323 323 322 320 318 316 316 316
368 369 369 369 368 369 369 362 346 353 368 367 366 364 365 366 365 363 361 348 351 364 364 363 362 363 363 349 367 364 358 363 365 362 360 359 356 353 350 349 352 351 357 360 356 351 352 357 351 351 355 356 355 357 358 342 335 330 329 327 326 324 323 324 324 324 323 322 321 320 318 315 314 314
367 368 370 370 368 368 369 356 337 334 346 365 363 363 362 362 362 362 365 345 335 336 334 335 337 337 335 333 331 329 332 346 354 357 352 349 351 348 346 347 350 352 356 357 358 353 350 354 352 348 351 353 352 352 353 356 339 331 328 327 325 323 321 322 322 322 323 322 321 319 318 315 314 315
366 368 364 368 369 369 369 347 332 331 347 365 364 363 362 360 361 362 361 361 361 332 331 330 331 329 329 332 333 330 328 328 335 350 347 352 352 350 349 345 348 351 354 354 357 353 349 352 353 349 351 350 351 351 354 355 350 338 327 323 323 322 322 320 320 321 322 321 320 319 317 316 315 322
366 367 364 359 355 360 358 340 332 326 344 365 364 364 363 359 360 361 362 361 362 363 358 361 360 357 346 350 350 349 332 330 336 347 351 353 350 348 347 347 347 345 350 358 362 350 349 349 349 349 345 341 344 349 350 352 355 355 354 356 349 323 320 319 318 317 319 319 319 318 316 315 315 327
366 366 368 361 332 331 331 328 326 322 322 359 364 363 361 360 358 361 362 364 368 368 366 366 363 362 363 363 363 358 358 353 348 349 352 354 354 351 349 348 347 344 347 355 354 351 349 350 346 349 344 340 337 344 348 349 351 352 352 351 349 337 325 323 321 317 317 316 316 317 316 313 316 329
362 364 365 367 339 325 325 323 321 319 316 329 362 362 361 362 365 356 365 365 363 364 363 359 358 359 360 359 357 356 356 356 357 354 352 356 357 354 350 348 347 345 347 353 347 353 346 347 345 346 345 345 343 341 344 346 349 350 351 351 351 352 354 346 336 339 321 315 314 314 314 313 313 324
363 364 364 367 345 321 322 319 318 315 317 317 350 359 333 330 329 360 363 364 361 359 357 356 355 355 353 353 353 353 353 353 354 353 354 357 360 360 358 353 346 343 345 352 340 351 347 344 343 341 342 341 341 341 340 342 345 348 349 351 350 352 352 351 348 347 344 338 334 322 322 313 314 315
361 363 365 365 349 318 315 314 314 314 314 320 340 326 323 324 325 337 355 357 355 353 353 352 350 349 349 349 348 350 352 352 354 352 353 354 355 355 355 355 353 349 349 352 352 351 348 345 347 343 340 342 338 338 339 338 341 347 346 346 348 349 351 351 350 349 349 347 344 324 317 313 313 314
359 363 365 364 328 312 308 309 312 313 315 336 323 318 321 322 328 349 353 352 352 348 346 345 346 347 348 349 349 348 350 348 352 350 349 349 350 351 351 352 350 351 350 349 348 347 347 344 343 343 343 341 337 335 334 340 340 341 340 343 344 345 346 347 347 346 347 348 347 346 337 330 324 320
362 325 309 309 313 311 307 307 310 312 314 317 321 316 317 328 349 354 352 353 350 345 343 345 348 348 348 347 348 351 352 349 349 351 350 352 351 351 351 351 351 350 348 347 347 347 346 346 344 344 342 342 338 338 336 335 336 337 338 338 337 341 343 346 346 345 346 346 345 345 342 338 332 326
316 312 312 310 310 313 319 343 355 357 345 321 321 319 324 349 358 357 352 348 346 345 344 343 343 345 347 346 350 348 350 349 347 347 345 343 342 343 342 340 341 343 343 344 345 345 345 343 342 341 339 338 337 336 337 334 333 335 334 334 335 336 341 344 344 344 343 343 344 344 344 341 337 331
343 340 344 344 329 331 328 335 332 334 327 334 338 343 346 354 356 354 350 346 345 343 343 342 344 344 344 344 345 346 344 345 345 343 339 338 337 339 339 337 337 339 342 343 342 341 340 339 340 339 336 335 335 336 336 334 331 331 333 335 335 332 337 342 343 343 343 344 344 343 344 342 339 332
353 354 333 335 355 354 354 354 355 352 351 349 346 350 349 351 351 349 343 341 345 344 343 342 341 341 343 341 340 339 338 337 338 340 337 336 336 336 337 335 335 335 336 338 338 340 340 340 338 336 335 333 331 333 335 334 333 333 334 335 335 337 340 340 341 342 344 343 341 340 342 342 338 337
353 354 351 351 352 352 350 351 353 351 349 348 350 351 351 349 347 345 345 345 343 345 344 337 338 336 338 339 337 336 336 337 336 339 337 338 337 337 336 332 331 331 330 331 333 335 338 338 339 336 336 337 337 336 333 331 333 335 335 336 337 337 339 342 341 341 344 342 340 340 340 340 338 337
353 352 351 351 350 350 352 350 349 348 347 346 345 344 335 346 347 344 345 342 340 342 341 338 335 336 334 334 334 333 332 335 334 334 329 335 336 333 331 329 330 331 330 329 330 331 333 335 336 336 337 337 337 337 337 335 333 335 336 337 337 337 340 344 344 346 347 342 339 337 336 337 337 336
353 352 351 351 351 350 351 350 349 346 343 340 338 336 336 337 337 336 339 337 336 336 336 335 334 334 333 332 331 330 330 331 332 333 334 333 333 330 329 328 329 328 328 328 328 330 330 330 331 329 329 329 328 333 334 334 329 328 330 331 333 332 333 335 336 337 338 341 344 338 336 336 336 337
354 354 353 352 352 351 348 345 343 340 337 334 333 333 332 332 334 335 335 337 336 334 333 333 331 331 330 329 329 329 329 327 330 329 329 330 328 328 328 329 327 327 328 328 327 330 329 328 328 325 322 321 321 321 324 328 327 328 322 319 321 321 322 325 328 332 335 336 339 338 333 331 332 336
353 355 353 349 341 337 334 334 333 334 335 334 333 333 333 332 332 335 337 330 335 332 333 333 334 331 330 328 328 327 328 327 328 328 327 328 328 328 327 325 326 327 326 327 328 329 329 326 326 324 320 318 317 316 319 330 320 317 322 317 318 319 319 320 322 325 329 333 334 336 335 333 333 334
345 341 337 333 331 331 332 333 335 335 334 331 332 332 334 333 334 335 336 335 333 332 329 332 330 329 331 328 329 329 328 328 329 328 325 327 327 325 325 325 325 325 325 327 328 328 328 327 324 322 320 317 315 315 316 322 326 323 311 319 317 317 318 317 317 318 321 326 328 332 335 333 333 334
335 333 331 330 330 332 332 332 331 331 332 332 333 334 334 334 333 333 332 333 334 333 333 332 330 330 329 330 328 328 328 327 328 326 326 327 327 325 325 324 324 325 325 325 327 327 327 325 323 322 320 318 317 317 318 319 320 323 316 307 315 315 313 313 314 316 318 320 324 329 330 323 320 317
331 332 332 331 332 332 332 333 333 334 334 336 334 336 334 332 333 333 333 332 333 335 334 331 329 325 330 328 327 329 329 329 328 327 326 327 325 325 325 323 324 325 325 324 324 325 324 323 323 322 321 321 322 323 324 323 322 322 321 319 305 312 314 313 312 313 315 318 322 324 321 323 320 319
331 332 332 332 332 331 331 332 332 332 332 333 334 330 335 335 334 333 333 332 333 332 331 329 329 332 331 329 330 328 327 327 326 326 327 326 324 323 322 320 324 324 324 323 323 322 323 324 325 319 327 326 325 326 321 317 314 316 315 317 311 309 308 311 313 312 312 315 318 319 317 317 316 316
331 330 331 332 331 331 332 331 331 330 332 337 332 333 335 335 335 326 327 328 336 336 332 330 331 328 329 329 329 328 328 326 325 327 326 325 324 324 322 322 322 323 323 322 321 322 324 327 327 326 326 323 320 317 314 312 312 312 313 315 317 313 311 309 310 310 312 311 311 314 314 315 317 314
330 329 329 330 331 330 330 330 331 332 332 332 332 333 331 329 327 328 331 331 332 329 330 329 329 330 329 329 328 330 328 326 326 327 326 326 325 324 322 323 322 323 324 324 324 325 325 326 325 322 322 320 318 317 313 313 313 313 312 312 313 316 318 314 311 310 310 309 309 310 317 317 313 310
327 327 327 327 328 329 330 331 330 330 331 332 330 332 333 331 330 331 331 330 329 330 329 329 329 329 329 329 328 331 328 325 326 328 326 325 325 325 323 323 321 322 323 323 323 323 323 324 324 321 319 317 317 315 314 313 312 312 312 312 314 314 314 315 317 313 312 310 308 309 309 311 312 314
324 323 323 323 324 325 326 327 327 328 328 328 329 329 328 330 329 330 331 331 330 329 329 329 330 330 329 328 328 327 326 321 324 327 326 325 324 324 325 324 321 321 322 323 323 322 322 322 322 323 320 318 318 316 315 314 312 312 312 312 312 313 313 313 311 311 310 310 308 308 308 309 310 309
Wind_Speed
6 6 7 6 5 5 4 4 4 3 3 3 3 3 4 3 5 5 5 4 4 3 2 3 6 3 2 3 3 4 5 4 5 7 7 8 8 11 16 15 15 15 16 16 16 17 17 18 18 18 19 19 19 19 19 18 18 17 17 17 16 15 14 13 12 12 14 13 13 13 13 12 12 11
6 6 6 6 6 6 6 6 6 4 4 5 5 4 4 4 5 5 6 6 5 5 4 4 3 5 5 5 5 4 5 5 6 6 7 8 8 9 13 14 15 16 16 17 17 18 18 19 19 19 19 19 20 21 20 20 20 19 19 18 17 16 14 14 13 12 13 14 14 14 14 14 12 12
6 6 7 6 6 5 6 6 5 5 5 5 5 5 4 5 5 6 5 8 4 3 4 4 5 1 5 5 4 4 4 5 7 6 7 8 10 9 9 13 16 17 17 18 18 18 19 19 20 20 20 21 21 21 21 21 20 20 19 19 18 17 15 16 14 13 13 14 14 14 14 14 13 12
6 7 7 7 6 6 6 6 6 5 5 5 5 5 5 5 6 5 6 8 9 6 7 7 6 7 6 5 6 6 6 5 11 7 7 8 8 8 10 15 18 18 18 19 19 20 20 21 21 22 22 22 22 21 21 21 21 20 20 19 18 17 17 16 15 14 15 14 15 15 15 15 14 13
7 7 7 7 8 7 7 6 6 6 6 6 6 6 6 6 6 6 6 8 9 7 6 7 7 7 7 8 7 8 7 7 6 9 8 9 9 9 9 10 16 20 20 20 21 21 21 22 22 22 22 22 22 21 21 21 21 20 19 19 18 18 17 16 16 15 15 14 15 15 15 15 15 14
7 8 8 9 8 8 8 8 8 6 6 6 7 6 6 6 6 6 7 7 8 9 6 7 7 7 7 8 7 8 8 8 7 8 7 7 9 9 9 10 10 17 20 21 22 21 21 21 21 22 22 21 21 21 21 21 20 20 19 19 19 18 17 17 17 16 16 16 16 16 16 16 16 15
9 9 9 9 8 7 9 9 8 8 7 6 7 7 6 6 6 6 7 7 8 10 9 7 8 7 7 8 7 7 7 7 7 8 9 9 9 9 10 10 11 13 18 21 20 20 20 20 20 21 21 21 21 21 21 21 20 20 20 20 20 19 18 18 18 18 18 18 17 17 16 17 16 16
9 10 9 9 9 8 9 9 8 7 7 7 7 8 7 7 8 7 7 8 8 8 9 8 8 8 8 8 8 7 7 7 7 8 8 9 10 11 11 12 12 14 15 17 18 18 19 19 19 19 20 20 20 20 21 20 20 20 20 20 20 19 19 19 18 19 19 19 19 19 19 19 17 17
9 10 10 9 9 8 9 9 9 8 8 7 7 7 7 7 6 6 7 8 8 8 9 9 8 8 8 8 8 7 7 8 8 8 10 10 11 12 13 12 12 15 15 15 16 16 18 19 19 19 19 19 20 20 20 20 20 20 21 21 19 19 19 19 19 20 20 20 20 20 20 20 19 18
10 10 10 10 9 9 10 9 8 8 9 8 8 8 7 6 5 6 7 7 9 9 9 9 9 8 8 8 7 7 8 8 7 8 9 11 12 12 12 12 10 9 8 7 9 14 17 20 22 20 19 19 20 20 20 20 20 21 21 21 20 20 21 21 21 21 21 21 21 21 21 20 20 19
11 11 10 10 10 10 10 10 9 9 8 8 9 8 8 7 7 7 7 8 9 9 9 9 9 9 8 8 9 6 6 8 9 10 10 11 11 11 11 10 7 8 9 10 11 13 14 15 12 15 20 20 21 21 21 21 21 21 22 21 21 21 21 21 21 21 21 22 22 22 22 21 21 21
11 11 11 11 11 11 10 10 9 9 8 7 8 7 7 7 7 7 7 8 8 8 8 8 8 8 9 8 8 7 7 8 10 10 10 12 11 9 7 6 8 8 9 11 10 9 13 16 20 21 17 17 19 20 20 21 21 22 22 21 21 21 21 21 21 21 22 23 23 23 23 23 22 22
11 11 11 11 11 10 10 11 9 7 4 6 7 6 7 7 7 7 7 7 7 8 8 9 9 10 10 9 9 10 8 8 10 9 11 12 11 9 7 5 5 7 10 11 10 9 9 11 11 9 9 10 17 19 22 18 22 23 22 22 23 23 22 22 22 23 23 23 24 24 24 24 24 23
11 11 11 10 11 8 8 9 11 11 9 9 9 7 6 7 8 8 8 8 8 8 9 9 10 10 11 10 10 10 9 8 9 12 10 12 13 13 13 8 6 6 8 11 11 9 8 10 10 9 10 11 11 12 11 12 15 18 23 24 23 23 23 23 23 23 23 24 24 24 25 24 24 23
10 10 11 10 10 10 10 11 12 12 14 14 14 14 13 10 9 9 10 9 9 9 10 10 10 11 11 12 12 11 12 11 11 10 8 9 10 13 14 15 8 3 5 9 13 13 9 9 12 11 11 12 12 13 14 15 17 20 19 21 21 22 22 23 24 24 24 24 25 25 24 24 24 23
10 10 10 10 9 9 10 10 10 13 15 15 15 16 15 15 16 14 11 10 10 11 11 11 10 10 11 12 11 12 11 11 11 9 9 10 13 14 14 13 13 8 8 12 15 17 11 11 11 12 11 12 13 14 15 15 16 17 18 18 19 20 21 22 22 23 23 25 25 24 24 24 24 24
10 9 9 9 8 8 9 10 11 9 10 15 18 17 17 16 16 17 18 17 14 12 12 12 12 11 11 12 12 11 10 8 10 10 11 10 12 12 13 14 14 12 9 12 15 18 13 11 12 13 11 11 12 13 14 18 18 16 17 18 19 19 19 20 21 21 23 23 24 23 23 24 24 24
11 10 9 9 9 9 9 9 10 10 11 8 8 10 10 10 13 16 18 19 20 17 14 14 14 13 12 12 12 12 11 10 10 10 13 12 12 11 13 13 14 14 13 13 13 16 14 10 13 14 12 11 13 12 14 14 14 15 17 18 19 19 19 19 20 21 22 23 23 23 23 23 23 23
11 10 10 10 10 9 9 9 9 10 9 8 8 9 10 10 10 11 13 14 12 11 13 15 16 15 14 13 14 13 10 8 7 8 12 14 15 16 14 11 12 13 11 11 9 14 14 12 14 15 13 12 12 12 12 12 14 15 17 19 19 19 19 19 20 21 22 23 23 22 22 21 21 22
11 11 11 11 11 10 10 10 11 10 9 9 9 10 10 10 10 9 10 9 10 10 9 11 12 11 12 10 10 8 8 6 6 9 11 12 14 14 12 11 10 11 11 9 9 11 12 12 14 15 12 12 13 12 11 14 12 14 17 18 19 20 19 19 20 21 22 23 21 20 22 22 22 22
12 11 12 12 10 11 11 11 11 12 11 11 11 11 11 10 9 9 8 12 16 15 16 16 15 13 13 11 9 10 13 10 7 8 11 13 11 12 15 14 10 10 9 10 11 12 14 12 12 14 13 13 13 14 13 12 15 13 15 17 18 18 19 19 20 20 21 22 19 20 22 21 21 22
11 12 13 13 12 11 10 9 11 12 10 11 11 11 11 11 10 9 9 8 9 20 18 14 14 12 9 7 10 13 14 14 6 7 12 14 12 11 11 16 15 13 10 10 9 10 11 11 11 12 13 14 12 12 11 11 11 11 11 16 18 18 19 20 20 21 21 21 19 20 21 20 20 15
11 11 11 15 15 13 11 9 9 11 11 11 11 11 10 11 11 9 9 8 9 2 4 5 6 6 8 10 9 10 16 17 11 9 11 10 11 11 12 12 13 14 7 3 6 10 11 11 11 11 12 14 13 12 12 10 10 10 12 9 9 17 19 20 21 20 21 20 20 20 20 19 17 11
10 11 10 11 16 17 16 14 11 11 13 12 12 11 10 11 11 9 8 6 6 8 9 6 3 6 9 9 6 7 9 9 8 10 9 9 10 11 11 11 11 12 10 9 9 11 12 11 13 11 13 15 15 11 12 12 11 12 13 13 15 10 16 18 16 21 21 20 22 21 19 19 19 12
10 9 9 9 14 19 19 18 17 13 13 12 11 12 11 11 8 7 7 9 10 10 7 5 6 9 9 8 8 7 7 9 9 9 9 9 10 10 11 11 11 12 12 7 10 9 12 13 15 14 14 13 15 16 13 13 13 13 13 13 13 13 10 6 8 10 16 21 21 21 18 18 23 17
9 9 8 9 10 17 17 17 16 16 14 15 10 12 14 13 11 8 8 9 10 8 6 6 7 8 7 6 5 5 6 6 6 6 6 8 9 8 9 10 12 14 14 11 11 12 12 13 14 15 14 14 16 15 17 15 13 13 13 12 12 11 9 11 6 9 8 9 10 14 15 20 23 26
11 10 9 9 9 14 15 15 15 14 15 10 10 15 14 13 12 6 7 7 7 5 5 6 6 5 4 4 4 4 4 4 3 4 5 7 8 8 9 11 11 13 13 13 12 12 12 13 12 14 15 14 17 18 16 16 13 12 13 12 12 11 10 10 10 10 10 8 9 16 18 19 22 24
10 10 9 4 11 13 14 14 13 12 11 10 13 15 15 14 5 4 6 6 4 4 4 5 5 4 3 4 3 2 2 4 4 5 6 7 8 9 10 10 11 11 12 12 12 11 11 12 13 13 14 15 16 17 19 15 15 14 15 13 13 13 12 12 12 12 10 11 11 7 8 9 11 13
2 8 12 12 10 9 9 9 7 6 10 12 10 11 12 8 5 6 5 6 4 4 5 5 4 3 2 1 2 1 3 4 6 6 5 5 7 8 9 10 10 10 9 9 10 11 11 11 13 13 13 12 14 15 15 17 16 16 14 15 14 12 13 12 12 12 13 12 10 12 9 10 11 13
7 7 11 11 11 9 9 8 7 6 5 8 5 5 5 5 5 5 5 2 1 1 1 2 1 1 1 2 1 2 4 4 3 2 4 5 5 5 7 8 9 9 10 10 9 9 9 10 10 11 12 12 12 15 15 16 15 14 14 15 16 15 11 11 11 11 11 12 12 12 10 8 10 12
4 6 5 5 5 7 5 5 8 9 8 5 4 4 4 3 3 4 4 5 4 3 3 3 4 3 2 3 3 4 3 3 1 1 3 4 5 5 5 7 9 8 7 7 7 7 8 9 9 10 11 11 12 12 15 15 17 17 16 15 15 14 12 12 11 12 12 12 12 11 8 8 10 10
11 7 8 9 6 6 7 7 6 6 6 5 4 5 4 5 5 5 4 4 3 3 1 3 4 4 4 5 3 3 1 1 1 2 3 3 4 5 6 6 7 7 7 7 7 7 7 7 9 9 10 12 14 15 15 15 16 17 16 14 13 15 14 13 13 12 11 12 11 11 9 10 12 11
11 10 9 10 10 9 10 10 8 7 7 7 6 6 6 5 5 5 2 2 2 3 3 3 4 6 5 4 2 2 1 2 2 2 3 2 4 5 5 6 7 7 9 9 9 9 8 9 9 10 11 11 13 15 15 15 14 14 15 16 15 14 14 14 14 13 13 11 11 12 10 8 9 12
11 11 11 12 13 12 11 10 9 9 7 6 5 5 0 2 6 6 5 1 4 4 3 3 4 5 4 3 3 3 3 3 3 3 3 3 4 5 6 7 7 8 8 9 9 10 10 10 10 10 10 10 10 12 12 13 14 14 14 15 14 14 13 13 12 13 11 10 10 11 10 9 8 10
11 11 11 11 10 10 8 8 9 8 6 6 6 5 4 2 2 2 1 2 2 2 2 3 3 4 4 3 3 3 4 4 4 4 4 4 4 5 6 6 8 8 9 9 10 9 10 11 11 11 10 10 10 8 7 9 13 14 13 14 15 15 16 15 16 13 15 15 9 10 10 9 8 10
9 9 9 8 7 6 5 3 5 7 8 8 6 5 5 5 4 5 5 4 3 3 2 2 2 2 2 3 3 3 3 4 4 4 4 4 5 5 5 6 7 8 8 9 9 10 10 11 11 11 12 12 11 11 9 12 15 9 11 11 11 12 12 13 13 12 11 12 11 9 10 9 11 13
9 6 4 6 6 6 8 7 7 7 9 8 7 7 6 5 5 5 5 5 4 3 2 3 3 2 2 1 2 2 2 3 4 4 4 4 4 5 6 6 7 8 8 8 9 9 9 10 10 10 12 12 12 12 12 10 10 13 10 12 13 12 14 13 14 13 12 12 11 9 10 9 9 11
7 7 8 8 8 8 8 6 6 5 5 5 6 6 6 5 4 4 5 4 4 4 4 5 3 3 2 1 2 1 2 2 3 3 4 4 5 5 6 7 7 7 8 9 9 8 8 9 9 10 11 11 13 13 13 12 10 9 17 12 14 14 13 14 14 14 14 12 12 12 10 10 8 6
8 9 9 9 8 9 8 7 7 6 6 6 6 6 6 6 6 6 6 5 5 5 5 4 4 2 2 2 1 1 1 2 2 2 3 3 3 4 5 6 7 6 8 8 8 7 7 7 8 10 11 11 11 12 12 12 11 9 9 15 11 13 13 13 13 14 14 13 10 11 5 4 4 7
9 10 10 8 7 7 7 8 7 6 6 5 5 5 6 7 7 6 6 5 4 4 4 4 2 3 4 2 2 2 2 2 2 2 3 3 3 4 4 5 6 7 7 7 7 7 7 8 8 10 10 9 10 10 10 9 8 8 8 6 9 7 10 12 11 12 13 13 11 9 6 5 2 2
7 9 9 7 7 6 6 6 7 6 6 6 5 4 4 4 5 5 4 4 5 5 5 4 5 4 2 2 2 2 1 1 2 2 2 3 3 3 4 7 6 5 6 6 6 6 7 8 7 2 7 9 9 9 8 9 11 11 12 12 9 7 8 9 11 11 9 11 9 7 6 5 3 2
8 9 8 9 8 7 7 7 7 6 6 6 5 4 4 3 2 3 3 2 3 4 4 5 4 3 3 3 2 2 2 1 2 2 2 3 3 3 2 3 5 5 5 6 6 6 6 6 7 8 8 9 9 10 11 11 12 12 13 12 12 10 8 7 10 13 13 12 10 8 6 4 2 1
8 8 8 7 6 6 7 7 7 7 5 5 5 4 5 5 5 6 5 5 5 5 5 4 3 3 2 2 1 2 2 2 1 2 3 3 3 4 4 4 5 6 6 5 5 5 6 6 6 7 8 8 8 9 10 11 11 10 11 12 12 11 10 9 11 12 17 23 20 11 8 6 4 3
8 9 8 8 7 6 5 5 6 6 5 5 4 3 2 4 4 3 3 4 5 5 4 3 3 3 2 2 2 2 2 2 3 3 3 3 4 4 4 4 5 6 6 5 6 5 5 5 4 5 7 7 7 8 10 11 11 11 11 10 10 11 11 11 11 13 15 20 24 19 17 12 6 4
8 8 8 7 7 7 7 6 5 4 3 3 2 2 2 1 1 2 2 1 3 3 4 3 3 3 2 2 2 3 1 1 5 4 4 4 4 4 5 5 5 6 6 5 6 6 6 6 5 5 6 7 7 8 9 7 8 10 10 11 12 11 11 11 12 13 13 14 21 22 21 19 18 17
Wind_Direction
224 216 216 222 232 245 246 249 246 245 264 261 260 265 268 278 283 292 302 303 305 300 275 280 141 175 197 205 212 202 227 231 196 228 232 236 247 206 203 210 216 220 223 226 226 228 229 232 233 234 235 236 236 235 236 237 238 237 237 239 239 238 235 231 223 215 219 219 212 208 209 209 210 211
232 234 225 213 226 226 230 225 233 228 218 234 234 236 237 238 260 281 291 296 293 285 260 250 165 173 198 206 220 235 247 157 204 242 250 252 251 237 201 211 217 221 224 225 227 227 229 231 233 234 234 235 235 235 235 235 236 236 236 238 237 235 229 232 224 213 217 218 215 212 211 211 210 209
228 232 232 228 235 235 236 242 232 219 214 227 233 236 233 234 243 262 269 282 277 293 299 307 319 204 189 247 271 263 255 198 205 243 249 246 248 255 222 214 220 223 225 227 229 230 231 231 232 232 234 234 235 236 235 235 236 235 236 236 235 234 231 232 227 217 212 216 216 214 212 212 209 206
222 226 230 228 233 232 238 237 238 230 224 228 232 231 231 229 236 241 252 261 274 279 290 296 284 265 258 241 249 260 263 241 187 244 245 246 241 235 248 223 220 225 227 228 230 231 232 232 231 232 233 234 235 236 236 236 236 236 236 236 235 234 232 230 228 222 220 214 215 213 213 212 209 206
224 224 230 232 232 233 237 239 238 233 223 223 231 230 226 231 227 227 236 256 270 272 272 279 282 288 288 273 251 256 259 260 239 221 240 243 243 245 247 250 217 219 223 227 229 232 233 234 234 234 235 236 237 237 237 238 237 236 236 235 234 232 231 228 226 223 220 214 212 213 211 210 209 207
233 223 226 231 232 229 235 240 241 238 235 226 230 226 229 233 232 223 235 246 266 277 270 266 271 277 262 261 247 251 258 267 269 261 254 246 245 250 255 251 253 212 219 221 227 230 233 236 237 239 240 242 242 242 242 242 240 239 237 235 233 230 228 225 223 221 218 218 215 210 209 208 207 207
225 229 227 229 231 229 230 232 240 242 239 241 242 240 234 233 239 234 221 241 259 272 276 273 273 265 262 262 266 257 257 261 260 263 263 262 258 253 250 255 261 236 213 219 223 229 233 235 237 239 240 242 243 244 245 244 243 240 238 235 231 228 225 222 221 219 218 217 214 209 206 206 204 206
224 228 229 233 232 229 230 232 237 237 235 233 233 238 236 236 241 243 237 228 248 263 274 270 268 271 271 268 263 259 251 256 258 259 266 259 259 257 256 252 252 254 237 221 224 229 233 235 237 238 240 240 241 242 243 244 243 241 240 237 233 229 225 222 218 218 217 216 216 215 213 210 204 205
229 230 233 234 233 232 233 232 234 235 229 227 231 235 235 236 235 237 239 239 237 252 263 272 269 270 269 270 272 263 261 260 255 252 250 254 256 254 254 258 256 254 243 230 228 232 235 237 238 239 240 239 240 241 242 242 242 241 241 239 235 230 227 223 219 216 215 215 214 215 215 212 209 206
227 232 233 235 236 232 230 234 233 234 231 227 228 233 238 238 238 244 250 254 258 262 267 275 282 277 277 279 272 277 275 270 266 258 258 255 251 250 251 252 262 271 273 261 226 225 235 239 240 240 238 239 240 242 242 241 239 239 240 238 233 229 227 224 220 216 214 214 213 213 213 213 210 207
228 230 231 231 231 231 230 232 233 231 229 227 230 228 230 229 233 240 244 246 251 257 266 272 272 279 276 275 281 272 271 275 270 268 267 261 253 251 253 264 272 277 275 266 256 259 269 270 256 229 230 237 238 240 240 240 238 239 238 236 231 229 228 225 221 218 215 214 213 212 211 211 211 208
233 232 233 234 230 229 228 230 232 232 233 229 231 230 227 228 232 240 244 246 252 257 262 266 277 281 284 281 273 270 264 271 268 260 257 266 267 260 254 266 284 286 282 277 282 258 237 239 245 251 245 232 235 237 239 239 241 240 240 237 233 231 229 227 224 221 217 215 214 212 210 210 210 208
233 240 241 239 239 231 225 223 232 242 255 239 238 236 231 233 240 245 247 254 259 264 266 272 273 274 272 273 274 272 263 257 261 273 274 273 278 288 292 285 268 272 276 276 276 274 276 276 278 279 265 233 222 234 231 238 231 234 234 232 230 229 227 224 222 221 220 218 216 214 212 210 208 207
235 235 239 241 238 236 221 208 208 217 227 238 250 255 247 242 243 248 253 255 258 264 267 269 272 273 274 278 281 283 278 270 263 269 264 277 288 298 295 281 263 252 270 284 279 271 270 274 274 259 256 261 231 249 231 227 227 224 224 229 227 225 223 222 221 221 220 218 217 215 213 211 208 207
236 237 236 243 231 212 213 217 210 211 215 222 228 237 247 257 258 258 258 259 260 261 263 265 265 268 273 275 281 284 285 278 278 280 285 288 292 295 301 302 306 252 283 288 294 288 278 271 271 266 263 260 255 252 250 238 220 224 221 222 225 225 224 222 220 219 219 220 219 216 213 211 209 206
233 235 237 236 236 234 229 233 215 212 217 219 223 229 232 234 243 250 257 263 262 259 262 263 264 272 272 277 278 279 279 277 280 282 285 288 290 292 290 290 292 308 308 298 296 292 295 280 270 272 261 259 261 256 256 249 231 224 225 225 225 224 223 223 223 222 220 221 220 219 215 212 209 206
232 233 234 237 236 236 212 222 239 242 219 210 221 224 227 233 233 234 239 243 248 261 264 264 268 267 270 270 268 270 288 310 293 288 281 278 283 285 283 285 295 301 300 291 286 290 295 293 282 275 271 266 267 268 249 239 240 229 226 227 228 227 224 222 222 221 223 223 222 220 217 214 210 206
230 230 231 232 233 233 229 230 234 237 241 238 210 214 223 231 226 225 230 232 237 242 251 259 262 262 260 265 270 277 284 282 277 283 289 293 286 283 281 291 294 293 295 284 288 288 290 297 298 289 291 292 285 273 272 262 243 231 229 229 230 229 227 224 221 221 223 223 221 219 219 216 212 208
234 232 229 232 237 236 233 234 232 238 241 236 244 247 243 234 241 225 212 215 223 223 229 238 246 255 262 269 275 278 277 279 294 293 287 292 293 287 287 286 280 283 278 265 256 272 282 294 294 293 297 295 289 290 284 256 240 231 227 229 230 229 230 226 224 223 224 225 221 217 216 216 214 211
233 232 232 232 235 236 239 231 220 233 246 255 257 255 253 256 254 255 249 230 212 225 223 228 240 247 263 290 299 326 335 320 271 283 289 289 284 289 292 286 287 284 290 277 249 265 280 292 295 297 295 295 292 293 290 291 260 230 228 229 229 228 227 226 226 225 226 227 222 216 214 213 210 210
233 231 229 229 234 236 236 231 211 212 223 249 256 258 262 263 266 271 266 208 215 230 235 234 229 239 253 273 308 306 281 263 285 288 285 277 282 289 294 297 294 290 300 301 299 293 292 295 296 295 291 289 289 288 286 282 275 232 223 226 229 227 224 224 226 228 229 228 221 216 215 211 208 208
235 232 225 229 233 237 239 227 200 207 205 241 251 257 263 265 264 264 263 264 216 209 222 229 241 249 270 289 273 270 272 271 251 252 262 275 288 286 289 292 298 301 301 287 289 287 291 304 302 301 303 299 289 291 293 291 289 276 213 221 228 226 221 220 220 226 230 230 221 217 211 208 203 203
231 233 222 215 226 234 240 231 202 201 204 241 250 257 262 264 266 263 269 266 278 230 179 235 240 252 240 240 243 247 250 256 244 234 250 269 277 283 288 293 301 306 304 334 349 306 300 305 304 307 305 298 297 296 294 290 288 290 297 274 230 219 222 217 218 218 228 229 226 221 210 203 190 200
228 229 234 210 203 221 230 235 219 200 206 232 251 258 260 266 263 270 266 292 327 310 305 321 283 275 281 275 233 219 236 239 223 228 236 246 263 273 279 284 286 287 293 304 325 312 304 304 300 306 300 301 300 300 295 292 287 294 295 288 291 246 207 219 216 219 222 224 226 223 208 196 184 201
234 231 228 244 192 201 217 225 227 214 210 225 246 251 260 260 288 350 297 290 293 286 299 309 295 279 278 276 279 269 254 254 232 219 227 236 249 265 278 286 290 287 292 317 30 319 310 307 301 302 294 291 292 297 300 299 297 299 296 290 286 284 290 210 207 216 218 224 228 225 210 191 187 196
239 239 240 248 192 187 206 216 222 221 215 223 232 251 256 268 284 281 280 281 282 285 291 281 285 287 284 286 291 293 289 286 286 269 245 226 233 252 273 282 287 290 293 306 330 307 301 295 296 300 297 298 295 297 301 298 297 296 300 300 297 293 283 290 214 223 204 206 221 222 210 196 194 201
244 245 245 247 171 175 194 206 214 216 213 212 233 244 253 257 266 286 266 277 277 264 254 268 271 275 273 272 267 257 265 271 289 298 308 312 307 291 284 279 277 282 290 301 302 296 289 288 293 294 296 296 296 298 294 299 305 310 302 299 302 299 295 290 280 267 257 232 216 206 204 195 200 203
242 245 245 236 148 168 181 195 204 209 192 212 222 232 244 253 266 268 264 244 223 210 217 224 224 224 227 239 241 256 285 293 311 303 301 291 281 277 277 278 279 281 289 291 294 294 294 291 291 291 292 296 298 298 300 300 298 306 306 305 303 302 301 296 290 286 271 262 257 230 185 195 203 208
274 70 85 95 120 137 151 163 164 173 201 221 231 226 235 243 241 224 219 216 197 195 197 193 193 204 198 241 267 298 289 284 274 263 267 277 282 280 278 282 284 285 284 286 290 294 296 297 298 301 299 298 296 296 299 298 304 303 309 314 303 303 303 296 285 278 277 276 263 254 225 198 197 200
71 80 88 103 115 124 134 155 191 194 166 205 228 231 228 225 223 215 198 160 77 69 54 47 7 286 283 246 328 271 245 246 258 296 302 299 293 307 312 310 304 302 295 293 295 301 305 306 308 309 303 297 295 298 299 303 302 304 307 300 300 298 285 286 292 291 277 270 269 262 244 209 201 191
151 143 167 118 108 110 110 91 93 111 124 145 171 180 202 220 232 219 174 134 104 57 20 4 344 314 306 305 245 229 222 217 183 354 328 314 326 323 317 307 295 294 299 303 307 319 320 313 312 313 307 306 303 298 299 300 297 301 301 302 303 299 301 295 291 289 284 278 272 263 242 215 222 197
209 175 125 138 153 155 172 171 181 174 167 171 172 180 190 208 221 199 152 154 147 108 51 356 333 312 284 256 244 250 227 25 52 28 355 348 323 320 310 295 301 308 312 315 317 322 314 322 327 322 311 308 303 300 299 297 296 298 298 299 295 292 296 297 299 297 290 285 277 265 242 227 226 219
190 183 188 210 211 211 214 211 206 188 187 191 201 201 202 209 203 195 243 238 145 96 72 11 349 308 292 286 290 304 31 40 20 38 1 347 333 318 311 310 315 323 324 325 328 329 337 335 326 323 318 309 301 300 299 295 293 297 298 304 305 302 300 295 299 301 300 289 272 265 256 209 218 232
177 188 203 211 213 211 214 211 199 187 188 182 179 169 206 211 187 198 221 270 38 15 355 312 297 286 290 299 327 341 1 5 359 29 1 351 346 328 332 326 326 329 328 326 330 334 336 330 330 328 325 315 313 309 310 312 315 318 321 317 312 307 306 306 309 313 302 283 279 270 252 239 211 225
188 194 206 210 211 214 214 208 198 183 175 168 168 159 152 138 123 181 161 113 182 198 238 254 275 297 306 319 346 354 8 353 343 359 358 354 341 342 333 330 332 330 329 328 331 338 333 334 334 333 332 331 326 327 330 342 333 337 332 331 332 334 335 338 331 327 319 304 288 267 263 249 233 225
192 196 198 204 195 189 168 114 102 135 157 157 160 149 158 184 189 182 175 149 166 186 195 233 251 276 302 323 359 354 2 337 344 356 354 352 349 341 335 333 329 325 325 326 334 332 337 334 341 341 339 338 335 335 332 30 49 12 6 347 343 334 329 326 320 313 306 305 296 271 264 245 239 239
182 177 151 124 93 86 107 117 119 135 154 156 159 173 179 179 178 179 131 137 176 185 210 231 225 224 230 301 313 317 335 339 353 352 345 351 348 345 336 333 330 328 326 332 331 330 336 341 350 345 342 337 340 331 330 332 63 60 29 1 347 340 332 326 323 319 319 314 306 287 264 260 256 251
115 107 114 121 122 116 119 122 125 130 137 155 168 174 167 158 159 145 138 164 171 188 180 218 188 225 229 180 276 349 332 343 332 336 342 341 354 350 341 334 331 329 327 326 329 334 340 344 350 351 346 340 332 333 326 334 328 35 52 21 355 345 341 336 332 329 322 318 312 309 295 269 275 298
124 123 120 120 120 122 120 129 144 148 156 168 169 166 158 160 155 153 168 181 182 192 193 203 194 209 215 213 241 254 273 345 321 333 335 340 355 343 336 335 321 324 323 322 331 337 346 345 356 353 346 339 333 327 325 321 336 344 57 56 22 358 353 344 335 331 326 322 319 311 325 26 51 43
119 121 122 122 126 131 138 143 145 147 153 160 165 170 161 159 162 169 173 172 176 197 200 180 151 179 208 211 243 233 225 244 272 312 334 323 337 317 326 326 309 311 312 323 332 341 344 354 359 356 342 334 329 331 319 322 321 345 347 55 72 31 4 357 345 336 330 330 315 312 321 333 35 22
105 110 114 121 125 131 134 131 132 142 153 159 161 160 160 148 166 162 154 154 174 185 192 172 181 219 197 197 219 273 266 292 313 315 321 299 309 299 300 285 291 319 319 324 332 336 356 347 12 310 307 336 341 331 338 345 345 345 348 348 7 15 356 11 6 353 339 330 332 338 345 353 17 97
117 119 126 131 136 137 136 134 135 138 148 162 159 147 145 157 103 74 119 147 201 204 203 180 172 212 189 208 222 224 246 296 309 301 299 316 328 319 273 293 327 321 315 326 335 337 345 347 350 351 345 349 352 349 355 352 344 343 345 346 350 353 356 358 14 10 14 5 346 338 340 336 10 117
107 111 112 104 105 126 139 146 144 145 142 147 144 151 162 157 151 182 192 168 189 191 198 182 190 199 201 207 204 277 266 253 288 303 312 307 317 319 326 329 333 319 314 319 324 318 334 339 358 346 354 356 358 349 352 350 347 349 347 351 354 352 352 357 18 15 19 13 7 353 325 313 310 302
108 109 107 107 110 100 94 118 140 144 138 134 141 165 173 164 169 169 176 161 186 197 191 189 186 202 205 214 241 237 252 323 312 291 301 304 299 306 313 318 322 326 314 327 323 328 330 327 348 349 0 1 349 352 357 353 355 354 351 353 356 357 3 6 15 17 21 25 12 7 16 15 10 16
94 96 99 102 100 97 96 93 80 104 105 102 115 109 113 115 122 148 138 174 203 200 204 211 205 206 220 241 258 261 356 281 260 273 291 300 316 310 311 308 322 322 317 326 318 325 332 325 341 335 0 5 342 352 4 13 355 356 2 2 2 3 6 9 10 19 22 27 20 22 32 37 50 67